EW3084 Weather Reports


Display with metric or nautical units.
time (UTC)temp
F
wind
direction
speed
MPH
gust
MPH
rain 1hr
in
rain 24hr
in
rain mn
in
humidity
%
barometer
mb
20260831032703 59 264 1.0 4.0 0.00 0.24 0.08 100
20260831031803 59 264 0.0 3.0 0.00 0.24 0.08 100
20260831030903 59 264 1.0 3.0 0.00 0.24 0.08 100
20260831030219 59 265 1.0 5.0 0.00 0.24 0.08 100
20260831025403 59 279 2.0 6.0 0.00 0.24 0.08 100
20260831024503 59 279 2.0 4.0 0.00 0.24 0.08 100
20260831023603 59 271 1.0 7.0 0.00 0.24 0.08 100
20260831022703 59 265 1.0 4.0 0.01 0.24 0.08 100
20260831022019 59 255 1.0 4.0 0.02 0.24 0.08 100
20260831020903 59 282 0.0 2.0 0.02 0.24 0.08 100
20260831020003 59 285 0.0 3.0 0.02 0.24 0.08 100
20260831015403 59 281 0.0 2.0 0.02 0.24 0.08 100
20260831014503 59 276 1.0 3.0 0.02 0.24 0.08 100
20260831013603 59 277 1.0 5.0 0.02 0.24 0.08 100
20260831012703 59 305 1.0 4.0 0.02 0.24 0.07 100
20260831011803 59 290 1.0 4.0 0.02 0.23 0.06 100
20260831010903 59 0 0.0 0.0 0.02 0.24 0.06 100
20260831010003 59 198 0.0 1.0 0.02 0.24 0.06 100
20260831005403 59 0 0.0 0.0 0.02 0.24 0.06 100
20260831004503 59 0 0.0 0.0 0.02 0.24 0.06 100
20260831003603 59 198 0.0 3.0 0.02 0.24 0.06 100
20260831002703 59 198 0.0 3.0 0.02 0.24 0.06 100
20260831001803 59 0 0.0 0.0 0.01 0.23 0.05 100
20260831001118 59 198 0.0 1.0 0.01 0.23 0.05 100
20260831000003 59 198 0.0 2.0 0.01 0.22 0.04 100
20260830235403 59 198 0.0 2.0 0.01 0.22 0.04 100
20260830234503 59 197 0.0 2.0 0.02 0.22 0.04 100
20260830233603 59 195 0.0 2.0 0.02 0.22 0.04 100
20260830232703 59 194 0.0 2.0 0.03 0.22 0.04 100
20260830232018 59 194 0.0 1.0 0.03 0.22 0.04 100
20260830230903 59 194 0.0 1.0 0.04 0.22 0.04 100
20260830230003 59 0 0.0 0.0 0.03 0.21 0.03 100
20260830225616 59 0 0.0 0.0 0.03 0.21 0.03 100
20260830224716 59 194 0.0 2.0 0.04 0.20 0.02 100
20260830223603 59 0 0.0 0.0 0.03 0.20 0.02 100
20260830222918 59 0 0.0 0.0 0.04 0.20 0.02 100
20260830221803 59 0 0.0 0.0 0.03 0.18 0.00 100
20260830220903 59 0 0.0 0.0 0.04 0.19 0.00 100
20260830220216 59 0 0.0 0.0 0.05 0.19 0.00 100
20260830215403 59 0 0.0 0.0 0.05 0.18 0.18 100
20260830214503 60 0 0.0 0.0 0.05 0.17 0.17 100
20260830213819 60 0 0.0 0.0 0.05 0.17 0.17 100
20260830212703 60 0 0.0 0.0 0.04 0.17 0.17 100
20260830212018 60 0 0.0 0.0 0.03 0.16 0.16 100
20260830210903 60 0 0.0 0.0 0.02 0.15 0.15 100
20260830210003 60 0 0.0 0.0 0.02 0.14 0.14 100
20260830205616 60 0 0.0 0.0 0.02 0.14 0.14 100
20260830204503 60 0 0.0 0.0 0.00 0.13 0.13 100
20260830203818 60 0 0.0 0.0 0.00 0.13 0.13 100
20260830202703 60 0 0.0 0.0 0.00 0.13 0.13 100
20260830201803 60 0 0.0 0.0 0.00 0.13 0.13 100
20260830200903 60 0 0.0 0.0 0.00 0.13 0.13 100
20260830200216 60 0 0.0 0.0 0.00 0.13 0.13 100
20260830195403 60 0 0.0 0.0 0.00 0.13 0.13 100
20260830194503 60 0 0.0 0.0 0.00 0.13 0.13 100
20260830193603 61 0 0.0 0.0 0.00 0.13 0.13 100
20260830192703 61 0 0.0 0.0 0.00 0.13 0.13 100
20260830192017 61 0 0.0 0.0 0.00 0.13 0.13 100
20260830190903 61 0 0.0 0.0 0.00 0.13 0.13 100
20260830190003 61 0 0.0 0.0 0.00 0.13 0.13 100
20260830185403 61 0 0.0 0.0 0.00 0.13 0.13 100
20260830184503 61 0 0.0 0.0 0.00 0.13 0.13 100
20260830183603 61 0 0.0 0.0 0.00 0.13 0.13 100
20260830182703 62 0 0.0 0.0 0.00 0.14 0.13 100
20260830181803 62 0 0.0 0.0 0.00 0.14 0.13 100
20260830180903 62 0 0.0 0.0 0.00 0.14 0.13 100
20260830180219 62 0 0.0 0.0 0.00 0.14 0.13 100
20260830175403 62 194 0.0 1.0 0.00 0.14 0.13 100
20260830174503 63 194 0.0 3.0 0.00 0.14 0.13 100
20260830173603 63 194 1.0 3.0 0.00 0.14 0.13 100
20260830172916 63 194 0.0 2.0 0.00 0.14 0.13 100
20260830171803 64 200 1.0 3.0 0.00 0.14 0.13 100
20260830170903 64 219 0.0 3.0 0.00 0.14 0.13 100
20260830170003 64 304 0.0 2.0 0.00 0.14 0.13 100
20260830165403 64 0 0.0 0.0 0.00 0.14 0.13 100
20260830164503 64 0 0.0 0.0 0.00 0.14 0.13 100
20260830163603 63 0 0.0 0.0 0.00 0.14 0.13 100
20260830162916 63 0 0.0 0.0 0.00 0.14 0.13 100
20260830161803 63 304 0.0 1.0 0.00 0.14 0.13 100
20260830160903 63 304 0.0 1.0 0.00 0.14 0.13 100
20260830160003 63 304 0.0 2.0 0.00 0.14 0.13 100
20260830155403 63 304 0.0 2.0 0.00 0.14 0.13 100
20260830154503 63 304 0.0 3.0 0.00 0.14 0.13 100
20260830153603 63 299 1.0 3.0 0.00 0.14 0.13 100
20260830152703 64 290 2.0 7.0 0.00 0.14 0.13 100
20260830151803 64 202 1.0 3.0 0.00 0.14 0.13 100
20260830150903 64 188 0.0 2.0 0.00 0.14 0.13 100
20260830150003 64 188 0.0 3.0 0.00 0.14 0.13 100
20260830145403 64 188 1.0 3.0 0.00 0.14 0.13 100
20260830144503 64 188 0.0 2.0 0.00 0.14 0.13 100
20260830143603 64 188 1.0 2.0 0.00 0.14 0.13 100
20260830142703 65 188 0.0 3.0 0.00 0.14 0.13 100
20260830141803 64 188 0.0 2.0 0.00 0.14 0.13 100
20260830140903 64 194 0.0 2.0 0.00 0.14 0.13 100
20260830140003 64 247 0.0 2.0 0.00 0.14 0.13 100
20260830135403 64 248 0.0 2.0 0.00 0.14 0.13 100
20260830134503 63 248 0.0 1.0 0.00 0.14 0.13 100
20260830133603 62 0 0.0 0.0 0.01 0.14 0.13 100
20260830132703 62 0 0.0 0.0 0.02 0.14 0.13 100
20260830131803 62 0 0.0 0.0 0.02 0.14 0.13 100
20260830130903 62 248 0.0 1.0 0.06 0.14 0.13 100
20260830130003 62 0 0.0 0.0 0.06 0.14 0.13 100
20260830125617 62 0 0.0 0.0 0.06 0.14 0.13 100
20260830124503 62 248 0.0 2.0 0.06 0.14 0.13 100
20260830123603 62 248 0.0 2.0 0.06 0.13 0.12 98
20260830122703 63 248 0.0 2.0 0.05 0.13 0.11 95
20260830121803 63 257 0.0 4.0 0.04 0.12 0.10 92
20260830120903 64 259 0.0 4.0 0.01 0.09 0.07 89
20260830120003 65 192 1.0 4.0 0.00 0.08 0.06 85
20260830115616 65 176 1.0 4.0 0.00 0.08 0.06 83
20260830114503 65 206 1.0 5.0 0.00 0.08 0.06 81
20260830113603 65 249 0.0 3.0 0.00 0.08 0.06 81
20260830112703 65 292 1.0 4.0 0.00 0.08 0.06 83
20260830111803 65 293 1.0 4.0 0.00 0.08 0.06 81
20260830111117 65 186 1.0 6.0 0.00 0.08 0.06 81
20260830110004 65 168 1.0 6.0 0.00 0.08 0.06 81
20260830105403 65 138 2.0 5.0 0.00 0.08 0.06 81
20260830104719 66 161 1.0 5.0 0.00 0.08 0.06 81
20260830103603 65 175 2.0 7.0 0.00 0.08 0.06 83
20260830102703 65 164 2.0 7.0 0.00 0.08 0.06 84
20260830102017 65 274 2.0 6.0 0.00 0.08 0.06 85
20260830100903 64 274 2.0 5.0 0.00 0.08 0.06 88
20260830100003 63 267 1.0 9.0 0.00 0.08 0.06 86
20260830095403 63 282 2.0 9.0 0.00 0.08 0.06 86
20260830094503 63 262 2.0 6.0 0.00 0.08 0.06 86
20260830093603 63 204 2.0 7.0 0.00 0.08 0.06 86
20260830092703 64 219 3.0 11.0 0.00 0.08 0.06 85
20260830091803 63 234 1.0 6.0 0.00 0.08 0.06 88
20260830090903 63 295 3.0 8.0 0.00 0.08 0.06 88
20260830090004 63 267 4.0 12.0 0.00 0.08 0.06 86
20260830085403 64 270 5.0 13.0 0.00 0.08 0.06 86
20260830084503 64 266 5.0 14.0 0.00 0.08 0.06 85
20260830083621 64 275 3.0 7.0 0.00 0.08 0.06 90
20260830082703 63 283 3.0 11.0 0.00 0.08 0.06 93
20260830081803 62 277 4.0 10.0 0.00 0.08 0.06 93
20260830081116 62 288 6.0 14.0 0.00 0.08 0.06 93
20260830080003 62 289 6.0 13.0 0.00 0.08 0.06 92
20260830075403 62 289 5.0 10.0 0.00 0.08 0.06 100
20260830074503 62 282 4.0 16.0 0.00 0.08 0.06 100
20260830073603 61 280 3.0 11.0 0.00 0.08 0.06 100
20260830072703 61 242 1.0 5.0 0.00 0.08 0.06 100
20260830072016 60 252 2.0 6.0 0.00 0.08 0.06 100
20260830070903 60 234 0.0 4.0 0.00 0.08 0.06 100
20260830070003 59 186 1.0 4.0 0.00 0.08 0.06 100
20260830065403 59 120 0.0 3.0 0.00 0.08 0.06 100
20260830064503 59 123 0.0 2.0 0.00 0.08 0.06 100
20260830063603 59 226 0.0 3.0 0.00 0.08 0.06 100
20260830062703 59 226 0.0 3.0 0.00 0.08 0.06 100
20260830061803 58 204 0.0 3.0 0.02 0.08 0.06 100
20260830060903 58 270 0.0 4.0 0.03 0.08 0.06 100
20260830060003 58 268 0.0 5.0 0.03 0.08 0.06 100
20260830055618 58 267 0.0 5.0 0.03 0.08 0.06 100
20260830054503 58 265 0.0 4.0 0.03 0.08 0.06 100
20260830053603 58 271 2.0 7.0 0.03 0.08 0.06 100
20260830052703 58 274 4.0 11.0 0.03 0.08 0.06 100
20260830051803 58 259 0.0 7.0 0.02 0.06 0.05 100
20260830050903 58 195 0.0 2.0 0.00 0.05 0.03 100
20260830050003 58 195 0.0 2.0 0.00 0.05 0.03 100
20260830045403 58 196 0.0 1.0 0.00 0.05 0.03 100
20260830044503 58 196 0.0 1.0 0.00 0.05 0.03 100
20260830043603 58 0 0.0 0.0 0.00 0.05 0.03 100
20260830042703 58 0 0.0 0.0 0.00 0.05 0.03 100
20260830041803 58 0 0.0 0.0 0.00 0.05 0.03 100
20260830040903 58 0 0.0 0.0 0.00 0.05 0.03 100
20260830040218 58 0 0.0 0.0 0.00 0.05 0.03 100
20260830035403 58 0 0.0 0.0 0.00 0.05 0.03 100
20260830034717 58 0 0.0 0.0 0.00 0.05 0.03 100
20260830033603 58 0 0.0 0.0 0.00 0.05 0.03 100